Regional Weather Roundup
Issued by NWS Portland, ME

Current Version | Previous Version | Text Only | Print | Product List | Glossary Off
Versions: 1 2 3 4 5 6 7 8 9 10 11 12 13 14 15 16 17 18 19 20 21 22 23 24 25 26 27 28 29 30 31 32 33 34 35 36 37 38 39 40 41 42 43 44 45 46 47 48 49 50
000 ASUS41 KGYX 191405 RWRGYX WEATHER ROUNDUP FOR MAINE AND NEW HAMPSHIRE NATIONAL WEATHER SERVICE GRAY ME 1000 AM EDT SUN AUG 19 2018 MEZ002-005-006-010-012-015-018-020-021-024-026-027-029-191500- MAINE CITY SKY/WX TMP DP RH WIND PRES REMARKS PORTLAND FAIR 71 58 63 NE14 30.07R SANFORD FAIR 70 58 65 E9 30.07R BAR HARBOR FAIR 67 58 72 NE14G20 30.06R WISCASSET FAIR 70 58 65 VRB7 30.07R ROCKLAND FAIR 66 60 81 NE9G16 30.06R FRYEBURG FAIR 72 57 59 NE8 30.09R LEWISTONAUBURN N/A 69 57 65 NE13 30.08R AUGUSTA FAIR 69 56 62 NE10 30.09R WATERVILLE FAIR 69 58 67 N9 30.07R BANGOR FAIR 67 58 72 E9 30.09R GREENVILLE NOT AVBL MILLINOCKET FAIR 68 55 63 E7 30.12R HOULTON FAIR 65 58 78 N8 30.10R PRESQUE ISLE FAIR 63 56 78 CALM 30.14R FRENCHVILLE FAIR 67 53 61 E8 30.13S CARIBOU FAIR 67 56 67 CALM 30.12R $$ NHZ002-005-008-009-011-012-014-191500- NEW HAMPSHIRE CITY SKY/WX TMP DP RH WIND PRES REMARKS PORTSMOUTH PTSUNNY 70 58 66 NE12 30.04R ROCHESTER FAIR 71 59 65 VRB7 30.06R NASHUA FAIR 70 61 73 VRB6 30.05R MANCHESTER PTSUNNY 72 57 59 NE12G17 30.03R CONCORD FAIR 73 56 54 E8 30.06R PLYMOUTH FAIR 67 58 74 CALM 30.08R BERLIN CLOUDY 59 59 100 CALM 30.12S WHITEFIELD CLOUDY 60 60 100 CALM 30.10S JAFFREY FAIR 69 58 67 NE6 30.08R KEENE FAIR N/A N/A N/A NE7 30.06R LEBANON FAIR 68 59 73 NW3 30.07S MT WASHINGTON FOG 45 45 100 E26G33 N/A VSB 1/16 $$ VTZ005-007-008-191500- VERMONT CITY SKY/WX TMP DP RH WIND PRES REMARKS ST JOHNSBURY N/A 64 59 83 MISG 30.08S MONTPELIER FAIR 61 60 97 CALM 30.14R BURLINGTON FAIR 72 62 71 CALM 30.07S $$ MAZ007-012-024-CTZ003-RIZ002-NYZ038-NYZ072-191500- SOUTHERN NEW ENGLAND AND NY CITY SKY/WX TMP DP RH WIND PRES REMARKS BOSTON PTSUNNY 70 61 73 NE17 30.03R WORCESTER FAIR 66 58 75 NE8G18 30.04R NANTUCKET CLOUDY 68 63 84 NE15 29.95R PROVIDENCE CLOUDY 70 60 70 NE22G29 30.00R HARTFORD PTSUNNY 70 60 70 NE14 30.01R ALBANY PTSUNNY 73 58 59 NE7 30.04R NEW YORK CITY PTSUNNY 72 63 73 NE18 29.96R $$ ANZ081-ANZ082-ANZ150-NHZ014-MEZ023>029-191500- COASTAL MARINE OBSERVATIONS STATION/POSITION TIME TEMP WIND PRES WAVE AIR SEA DIR/SP/G HT/PER (UTC) (F) (DEG/KT/KT) (MB) (FT/S) MOUNT DESERT ROC 1300 58 350/ 16/ 17 1016.4R MATINICUS ROCK 1300 61 20/ 13/ 14 1016.6R ISLE OF SHOALS 1300 65 30/ 19/ 21 1015.9R JEFFREYS LEDGE 1336 66 N/A 5/ 6 $$ .............KEY.............. WCI - WIND CHILL TC - TEMPERATURE IN CELSIUS VSB - VISIBILITY IN MILES HX - HEAT INDEX FAIR- INDICATES FEW OR NO CLOUDS BELOW 12,000 FT, WITH NO SIGNIFICANT WEATHER AND/OR OBSTRUCTIONS TO VISIBILITY.

USA.gov is the U.S. government's official web portal to all federal, state and local government web resources and services.